Location: ??? ??????
(38.4060°N, 23.9111°E)
Time: 12:15:07
(UTC+00:00)

Daily predictions for brighter satellites

Satellite Brightness Start Highest point End
(mag) Time Altitude Azimuth Time Altitude Azimuth Time Altitude Azimuth
Cosmos 1980 Rocket 3.3 17:58:55 10° N 18:03:48 29° ENE 18:08:39 10° ESE
Cosmos 2369 4.4 17:58:47 10° N 18:04:05 40° ENE 18:09:21 10° SE
ISS -1.1 18:03:56 10° NNW 18:05:35 13° NNE 18:07:15 10° NE
Cosmos 2058 3.0 18:02:25 10° S 18:06:29 56° E 18:10:36 10° NNE
Meteor 2-13 Rocket 4.5 18:02:26 10° S 18:08:26 63° E 18:14:27 10° NNE
COSMOS 2406 3.6 18:03:11 10° SSW 18:08:50 73° WNW 18:14:34 10° NNE
RESURS DK-1 2.3 18:07:55 10° SSW 18:12:01 64° ESE 18:16:08 10° NNE
OAO 3 Copernicus 4.5 18:08:07 10° W 18:13:04 60° S 18:18:01 10° ESE
Cosmos 1634 Rocket 4.1 18:08:01 10° N 18:14:18 83° W 18:20:30 10° S
Cosmos 2221 3.1 18:10:44 10° N 18:14:47 39° ENE 18:18:50 10° SSE
IRIS 3.7 18:12:26 10° WNW 18:14:49 84° NNE 18:17:51 10° ESE
Hubble Space Telescope 2.5 18:12:30 10° SW 18:15:29 19° S 18:18:28 10° SE
CZ-4 R/B 4.3 18:15:35 10° SW 18:18:16 17° W 18:20:59 10° NW
ERBS 2.6 18:15:22 10° NNW 18:18:31 51° NE 18:21:24 12° ESE
USA 32 4.2 18:14:07 10° N 18:19:22 82° W 18:24:37 10° S
SL-19 R/B 4.1 18:20:35 10° SSE 18:24:00 90° W 18:27:58 10° NNW
Resurs 01 Rocket 2.6 18:20:49 10° SE 18:24:37 30° ENE 18:28:30 10° N
Cosmos 2098 Rocket 3.3 18:22:07 10° SSE 18:24:40 26° E 18:27:30 10° NNE
Cosmos 2151 4.3 18:23:53 10° SE 18:27:03 22° E 18:30:20 10° NE
Cosmos 1689 Rocket 3.8 18:24:33 10° N 18:27:06 34° WNW 18:29:37 10° SW
ERS-2 2.2 18:30:01 10° NNE 18:33:36 55° ESE 18:37:08 10° S
SEDSat Delta rocket 3.8 18:30:27 10° WSW 18:34:04 30° S 18:36:36 16° SE
Ariane Rocket 3.0 18:31:16 10° SSE 18:36:17 67° ENE 18:41:19 10° N
USA 186 3.8 18:36:39 10° SSW 18:39:17 25° W 18:41:48 10° NW
SL-16 R/B 4.0 18:38:58 10° N 18:42:44 18° NE 18:46:11 11° E
GENESIS II 4.5 18:38:54 10° NW 18:42:45 64° WSW 18:45:57 14° SSE
Cosmos 2360 4.4 18:41:07 10° NNW 18:46:47 73° WSW 18:52:20 10° SSE
ARIANE 5 R/B 4.5 18:49:18 14° E 18:51:00 16° ENE 18:53:46 10° NNE
Cosmos 371 Rocket 3.7 18:46:40 10° N 18:51:18 45° ENE 18:54:11 21° SE
SPOT 1/Viking Rocket 4.2 18:50:41 19° SE 18:53:53 38° ENE 18:58:40 10° N
ATLAS 2AS CENTAUR R/B 4.2 18:46:37 10° WSW 18:54:09 46° NW 19:01:35 10° NNE
Atlas Centaur 2 2.4 18:51:37 10° WSW 18:55:17 26° S 18:56:28 22° SSE
Helios 1A Rocket 4.5 18:53:37 10° SSW 18:57:16 33° W 19:00:58 10° NNW
Cosmos 1076 Rocket 3.5 18:54:47 10° S 18:59:07 84° W 19:03:30 10° N
Cosmos 1697 Rocket 3.5 18:54:09 10° NNW 18:59:35 49° WSW 19:05:00 10° S
Cosmos 1271 Rocket 4.1 18:57:41 10° NNE 19:00:55 23° ENE 19:01:48 21° E
BREEZE M DEB (TANK) 2.8 19:01:17 10° SW 19:03:48 54° SE 19:13:46 10° ENE
ATLAS 3B R/B 3.0 18:57:24 10° NNW 19:04:31 66° NE 19:09:26 23° SE
Cosmos 923 Rocket 4.4 19:00:33 14° SSE 19:04:40 42° ESE 19:09:41 10° NNE
OBJECT-B 3.7 19:04:08 10° SW 19:05:58 14° W 19:07:48 10° WNW
Cosmos 1092 Rocket 4.1 19:03:40 14° SSE 19:09:00 57° E 19:15:09 10° NNE
Meteor 2-19 Rocket 4.4 19:03:43 10° S 19:09:42 68° E 19:15:42 10° NNE
Terra 3.6 19:09:03 15° E 19:10:18 16° ENE 19:13:08 10° NNE
USA 267 4.1 19:05:19 10° ENE 19:10:30 25° ESE 19:11:57 23° SE
Cosmos 2082 Rocket 3.6 19:06:12 10° SW 19:11:28 41° WNW 19:16:48 10° N
SPOT 5 4.1 19:11:34 19° E 19:12:32 21° ENE 19:15:46 10° NNE
Cosmos 2278 3.7 19:13:42 10° NNW 19:19:22 84° WSW 19:22:42 26° SSE
Cosmos 1633 4.2 19:18:04 10° SW 19:21:20 33° WNW 19:24:38 10° NNW
Cosmos 2026 Rocket 4.1 19:17:48 21° SSE 19:22:04 58° E 19:28:12 10° NNE
ERS-1 Rocket 4.0 19:20:35 26° E 19:22:04 30° ENE 19:26:25 10° N
Cosmos 158 Rocket 4.2 19:20:01 10° SSW 19:25:05 73° WNW 19:30:22 10° NNE
Cosmos 2360 Rocket 4.0 19:22:30 10° N 19:26:13 18° NE 19:28:22 15° E
Cosmos 332 Rocket 3.9 19:23:47 10° NNW 19:28:38 63° ENE 19:30:16 40° SE
Cosmos 1606 4.5 19:29:57 10° NNW 19:33:13 28° W 19:35:59 13° SSW
Landsat 7 4.4 19:32:01 21° S 19:35:01 52° W 19:39:40 10° NNW
Spot 2 Rocket 3.6 19:34:37 40° SE 19:36:19 62° ENE 19:41:23 10° N
SPOT 3 Rocket 3.9 19:33:28 24° S 19:36:38 63° W 19:41:49 10° NNW
Cosmos 1627 Rocket 4.4 19:33:00 20° S 19:37:32 81° E 19:43:51 10° N
GP-B 3.0 19:33:25 10° N 19:37:51 65° E 19:38:47 50° SSE
Cosmos 2112 Rocket 4.1 19:37:34 38° SSE 19:39:16 55° ESE 19:44:26 10° NNE
Meteor 1-26 Rocket 4.3 19:33:22 10° N 19:39:17 70° E 19:41:32 38° SSE
Cosmos 1680 Rocket 3.4 19:37:14 31° S 19:39:46 67° ESE 19:45:00 10° NNE
MetOp-B 4.4 19:40:08 27° S 19:43:01 65° WSW 19:48:22 10° NNW
ISS -3.3 19:39:43 10° NW 19:42:58 52° NNE 19:42:58 52° NNE
Cosmos 1980 Rocket 3.3 19:42:40 10° NW 19:47:49 37° WSW 19:51:04 20° SSW
Okean 3 Rocket 3.6 19:47:37 58° ESE 19:47:59 61° E 19:52:26 10° NNE
Cosmos 1812 4.1 19:45:22 10° NNE 19:48:00 27° NE 19:48:00 27° NE
CZ-2C R/B 4.3 19:44:31 10° N 19:48:56 55° WNW 19:52:04 18° SW
USA 245 4.0 19:47:54 38° S 19:49:54 74° WSW 19:54:24 10° NNW
Cosmos 1428 Rocket 4.5 19:47:21 22° S 19:51:31 80° W 19:57:39 10° N
Cosmos 2322 Rocket 2.5 19:53:23 10° NNW 19:58:53 52° ENE 19:59:58 45° E
Resurs 01 Rocket 3.7 19:58:24 14° SW 20:01:05 23° W 20:04:37 10° NW
Meteor 2-14 Rocket 4.4 19:59:57 47° SSE 20:01:37 66° E 20:07:42 10° NNE
Cosmos 1408 Rocket 4.4 20:03:08 37° ENE 20:03:08 37° ENE 20:06:18 10° NNE
Cosmos 304 Rocket 4.0 19:58:18 10° NNW 20:03:02 62° WSW 20:03:55 52° SSW
Cosmos 1933 4.3 19:59:57 10° NNW 20:03:47 42° W 20:04:32 37° WSW
BREEZE-M DEB (TANK) 4.3 19:59:33 10° NW 20:03:48 84° NE 20:09:24 32° ESE
Cosmos 2266 Rocket 4.5 20:08:56 39° E 20:09:09 40° E 20:14:51 10° NNE
Cosmos 1553 Rocket 3.9 20:03:43 10° N 20:09:47 67° E 20:10:57 55° SE
CARTOSAT-1 3.9 20:09:30 52° SW 20:09:57 56° W 20:14:13 10° NNW
Cosmos 2084 3.5 20:12:29 67° WNW 20:12:33 67° NW 20:16:40 10° NNE
Gbstr 26 Del rocket 3.5 20:09:27 10° NW 20:12:56 48° NNE 20:12:56 48° NNE
Cosmos 2219 Rocket 3.9 20:16:21 10° N 20:20:14 19° NE 20:21:16 18° ENE
Cosmos 1862 4.0 20:21:26 50° N 20:21:26 50° N 20:24:25 10° N
Cosmos 1624 Rocket 4.1 20:17:27 10° N 20:22:36 59° ENE 20:22:39 59° ENE
COSMOS 2455 3.6 20:26:05 37° ENE 20:26:05 37° ENE 20:30:17 10° NE
ARIANE 5 R/B 3.4 20:26:51 45° WSW 20:27:04 45° W 20:31:21 10° NNW
SL-16 R/B 2.2 20:21:44 10° NNW 20:27:22 68° WSW 20:28:03 62° SSW
Cosmos 1655 Rocket 3.9 20:27:49 62° SE 20:28:31 67° E 20:34:52 10° NNE
Cosmos 1782 4.1 20:26:32 10° NNW 20:30:03 35° W 20:30:03 35° W
Cosmos 1515 Rocket 4.2 20:26:10 10° N 20:29:35 48° NNE 20:29:35 48° NNE
Cosmos 2237 4.1 20:25:44 10° NNW 20:31:27 74° ENE 20:31:46 72° E
H-2A R/B 4.3 20:27:51 10° NNE 20:30:48 44° NNE 20:30:48 44° NNE
Cosmos 1420 Rocket 4.5 20:28:30 10° N 20:33:28 48° ENE 20:33:28 48° ENE
COSMOS 2428 4.4 20:30:33 10° N 20:34:43 20° NE 20:35:35 20° ENE
Meteor 2-6 Rocket 4.0 20:31:07 10° N 20:36:32 84° W 20:36:39 83° SW
Cosmos 1417 Rocket 4.3 20:30:43 10° N 20:37:04 89° W 20:37:54 69° S
S3M 3.9 20:33:40 10° N 20:40:06 79° E 20:40:43 71° SE
BREEZE-M DEB (TANK) 3.5 20:37:25 10° WNW 20:41:39 72° SW 20:43:14 56° SSE
Cosmos 1151 Rocket 4.3 20:39:52 10° NNW 20:43:40 35° W 20:43:40 35° W
ATLAS 5 CENTAUR R/B 4.3 20:42:54 10° N 20:46:45 18° NE 20:49:10 15° ENE
Terra 2.4 20:47:56 51° W 20:47:56 51° W 20:52:15 10° NNW
SPOT 5 4.1 20:50:48 30° W 20:50:48 30° W 20:54:17 10° NW
USA 267 3.2 20:47:20 10° NE 20:53:53 81° NW 20:59:01 18° SW
ATLAS 3B R/B 4.2 20:49:06 10° WNW 20:54:44 25° WSW 20:56:42 22° SW
ERS-1 Rocket 4.4 21:00:35 28° W 21:00:47 28° W 21:05:06 10° NW
Meteor 1-27 Rocket 3.8 20:56:40 10° N 21:01:49 68° NE 21:01:49 68° NE
Cosmos 2056 Rocket 4.0 20:57:28 10° NNW 21:02:09 55° WNW 21:02:09 55° WNW
Cosmos 2360 Rocket 2.4 21:05:09 10° NNW 21:10:08 62° WNW 21:10:08 62° WNW
Cosmos 2333 Rocket 2.5 21:15:47 10° NNW 21:20:38 61° NNE 21:20:38 61° NNE
USA 234 4.2 21:22:43 29° ENE 21:25:16 41° NNE 21:31:18 10° NW
Cosmos 2322 4.0 21:26:01 10° NNW 21:30:48 63° N 21:30:48 63° N
Cosmos 2297 Rocket 4.0 21:35:25 20° ENE 21:35:25 20° ENE 21:37:34 10° NE
Lacrosse 5 4.3 21:42:49 13° ENE 21:42:49 13° ENE 21:43:25 10° NE
Cosmos 2237 Rocket 3.8 21:37:26 10° N 21:42:04 25° ENE 21:42:14 25° ENE
Cosmos 2322 Rocket 4.1 21:38:32 10° NW 21:41:46 19° W 21:41:46 19° W
Cosmos 2227 Rocket 4.1 21:47:05 19° ENE 21:47:05 19° ENE 21:49:07 10° NE
Cosmos 2285 Rocket 4.1 21:42:11 10° NNW 21:47:42 70° NW 21:47:42 70° NW
Cosmos 2219 Rocket 3.1 21:59:07 10° NNW 22:02:58 43° NW 22:02:58 43° NW
BREEZE-M DEB (TANK) 4.5 21:54:58 10° WSW 22:07:38 62° NNW 22:11:44 10° ENE
SL-16 R/B 4.5 22:05:48 10° NNE 22:09:00 15° NE 22:10:53 13° ENE
COSMOS 2455 4.3 22:09:10 27° WNW 22:10:40 31° NW 22:15:59 10° N
NOSS 3-1 (C) 4.3 22:06:56 10° NW 22:14:30 60° WSW 22:14:30 60° WSW
Meteor 2-4 Rocket 4.4 22:11:28 10° N 22:16:13 54° NNE 22:16:13 54° NNE
COSMOS 2428 3.7 22:13:48 10° NNW 22:17:35 40° NW 22:17:35 40° NW
Cosmos 1745 Rocket 4.2 22:23:42 65° NNE 22:23:42 65° NNE 22:28:58 10° N
USA 229 DEB 3.9 22:21:22 10° NW 22:28:16 72° W 22:28:16 72° W
USA 229 3.9 22:21:27 10° NW 22:28:23 73° W 22:28:23 73° W
ATLAS 5 CENTAUR R/B 2.8 22:26:08 10° NNW 22:30:39 58° NNW 22:30:39 58° NNW
Cosmos 2219 3.9 22:40:38 50° NNE 22:40:38 50° NNE 22:44:51 10° NNE
Nadezhda 1 Rocket 4.3 22:39:01 10° N 22:44:26 62° NW 22:44:26 62° NW
NOSS 3-1 (A) 4.3 22:41:37 10° NW 22:48:48 58° W 22:48:48 58° W
USA 234 3.9 23:10:02 44° WNW 23:10:02 44° WNW 23:14:33 10° NW
SL-16 R/B 4.2 23:06:18 21° E 23:08:29 26° ENE 23:13:27 10° N
CZ-2D R/B 3.7 23:05:23 10° NE 23:09:04 26° E 23:09:04 26° E
Cosmos 2297 Rocket 3.3 23:17:11 37° NW 23:17:11 37° NW 23:21:55 10° N
Lacrosse 5 3.3 23:21:59 32° NNW 23:21:59 32° NNW 23:26:15 10° NNE
Cosmos 2237 Rocket 3.5 23:20:55 10° NW 23:24:02 30° NW 23:24:02 30° NW
Cosmos 2227 Rocket 3.1 23:28:53 39° NW 23:28:53 39° NW 23:33:38 10° N
Cosmos 2181 Rocket 4.0 23:25:04 10° N 23:30:50 76° NNW 23:30:50 76° NNW
Cosmos 2263 Rocket 2.8 23:46:36 47° E 23:46:36 47° E 23:51:29 10° NE
ADEOS Rocket 3.9 23:47:08 33° E 23:48:30 38° ENE 23:53:31 10° N
SL-16 R/B 2.5 23:48:07 10° NNW 23:52:42 59° NW 23:52:42 59° NW
Cosmos 407 Rocket 4.0 23:54:56 55° ENE 23:54:56 55° ENE 23:59:24 10° NNE
